Regional Weather Roundup
Issued by NWS

Home | Current Version | Previous Version | Graphics & Text | Print | Product List | Glossary On
Versions: 1 2 3 4 5 6 7 8 9 10 11 12 13 14 15 16 17 18 19 20 21 22 23 24 25 26 27
000
ASUS45 KCYS 311910
RWRWY

WYOMING REGIONAL WEATHER ROUNDUP
NATIONAL WEATHER SERVICE CHEYENNE WY
100 PM MDT TUE MAY 31 2016

NOTE:  "FAIR" INDICATES FEW OR NO CLOUDS BELOW 12,000 FEET
WITH NO SIGNIFICANT WEATHER AND/OR OBSTRUCTIONS TO VISIBILITY.

WYZ001-312000-
YELLOWSTONE NATIONAL PARK

CITY           SKY/WX    TMP DP  RH WIND       PRES   REMARKS
LK YELLOWSTONE   N/A     47  24  40 SE8       30.26F
W YELLOWSTONE  NOT AVBL

$$
WYZ002>013-054>058-071-098>099-312000-
NORTHERN WYOMING

CITY           SKY/WX    TMP DP  RH WIND       PRES   REMARKS
JACKSON        SUNNY     57  25  28 CALM      30.18
CODY           FAIR      57  36  44 N10G16    30.17F
GREYBULL       FAIR      63  31  30 N16G26    30.12F
WORLAND        FAIR      65  25  22 NW15G28   30.14F
SHERIDAN       PTSUNNY   55  37  50 N24G38    30.14F
BUFFALO        CLOUDY    52  36  54 N31G38    30.12R
GILLETTE       PTSUNNY   56  40  55 NW26G40   30.08F
HULETT         RAIN      46  41  81 W12G18    30.08R
NEWCASTLE      FAIR      57  32  38 NW29G40   30.07F

$$
WYZ014>020-022>026-101>103-312000-
CENTRAL WYOMING

CITY           SKY/WX    TMP DP  RH WIND       PRES   REMARKS
BIG PINEY      FAIR      60  31  33 SW6       30.17F
PINEDALE       FAIR      59  23  25 NW12G21   30.18F
DUBOIS         FAIR      59  16  18 N8G18     30.17S
LANDER         FAIR      61  37  41 MISG      30.15F
RIVERTON       PTSUNNY   59  33  37 NE9G17    30.16F
CASPER         FAIR      62  32  32 NW17G23   30.14F
DOUGLAS          N/A    N/A N/A N/A MISG      30.11F

$$
WYZ021-027>030-104>119-312000-
SOUTHERN WYOMING

CITY           SKY/WX    TMP DP  RH WIND       PRES   REMARKS
EVANSTON       FAIR      63  33  32 CALM      30.18S
KEMMERER         N/A     61  30  31 SW12G18   30.18F
FORT BRIDGER   CLEAR     63  30  29 N5        30.20F
ROCK SPRINGS   FAIR      60  35  39 CALM      30.16F
DIXON          FAIR      64  36  34 W8        30.17F
RAWLINS        PTSUNNY   60  34  37 N9        30.18S
SARATOGA       FAIR      61  36  39 NW9G21    30.17S
LARAMIE        FAIR      56  37  49 N16       30.15F
CHEYENNE       FAIR      60  41  49 E6        30.11F
TORRINGTON     FAIR      67  33  28 W16       30.06F
PINE BLUFFS    FAIR      59  41  51 NE5       30.12F

$$




USA.gov is the U.S. government's official web portal to all federal, state and local government web resources and services.